Location: Unspecified
(33.6682°S, 0.0000°E)
Time: 03:15:36
(UTC+00:00)

Vanguard 2 Rocket - Pass Details

Date: 20 June 2019
Orbit: 554 x 3326 km, 32.9° (Epoch: 19 July)

Event Time Altitude Azimuth Distance (km) Brightness Sun altitude
Rises 08:45:03 0° 306° (NW) 6,851 11.3 16.2°
Reaches altitude 10° 08:50:16 10° 309° (NW) 5,505 10.9 17.0°
Maximum altitude 09:04:44 54° 20° (NNE) 2,161 9.8 19.1°
Drops below altitude 10° 09:13:01 10° 95° (E) 3,268 10.4 20.2°
Sets 09:15:19 0° 99° (E) 3,965 10.6 20.5°
